Total_Precipitation_Accumulation
0.00 0.00 0.00 0.00 0.00 0.00 0.00 0.00 0.00 0.00 0.00 0.00 0.00 0.00 0.00 0.00 0.00 0.00 0.00 0.00 0.00 0.00 0.00 0.00 0.00 0.00 0.00 0.00 0.00 0.00 0.00 0.00 0.00 0.00 0.00 0.00 0.00 0.00 0.00 0.00 0.00 0.00 0.00 0.00 0.00 0.00 0.00
0.00 0.00 0.00 0.00 0.00 0.00 0.00 0.00 0.00 0.00 0.00 0.00 0.00 0.00 0.00 0.00 0.00 0.00 0.00 0.00 0.00 0.00 0.00 0.00 0.00 0.00 0.00 0.00 0.00 0.00 0.00 0.00 0.00 0.00 0.00 0.00 0.00 0.00 0.00 0.00 0.00 0.00 0.00 0.00 0.00 0.00 0.00
0.00 0.00 0.00 0.00 0.00 0.00 0.00 0.00 0.00 0.00 0.00 0.00 0.00 0.00 0.00 0.00 0.00 0.00 0.00 0.00 0.00 0.00 0.00 0.00 0.00 0.00 0.00 0.00 0.00 0.00 0.00 0.00 0.00 0.00 0.00 0.00 0.00 0.00 0.00 0.00 0.00 0.00 0.00 0.00 0.00 0.00 0.00
0.00 0.00 0.00 0.00 0.00 0.00 0.00 0.00 0.00 0.00 0.00 0.00 0.00 0.00 0.00 0.00 0.00 0.00 0.00 0.00 0.00 0.00 0.00 0.00 0.00 0.00 0.00 0.00 0.00 0.00 0.00 0.00 0.00 0.00 0.00 0.00 0.00 0.00 0.00 0.00 0.00 0.00 0.00 0.00 0.00 0.00 0.00
0.00 0.00 0.00 0.00 0.00 0.00 0.00 0.00 0.00 0.00 0.00 0.00 0.00 0.00 0.00 0.00 0.00 0.00 0.00 0.00 0.00 0.00 0.00 0.00 0.00 0.00 0.00 0.00 0.00 0.00 0.00 0.00 0.00 0.00 0.00 0.00 0.00 0.00 0.00 0.00 0.00 0.00 0.00 0.00 0.00 0.00 0.00
0.00 0.00 0.00 0.00 0.00 0.00 0.00 0.00 0.00 0.00 0.00 0.00 0.00 0.00 0.00 0.00 0.00 0.00 0.00 0.00 0.00 0.00 0.00 0.00 0.00 0.00 0.00 0.00 0.00 0.00 0.00 0.00 0.00 0.00 0.00 0.00 0.00 0.00 0.00 0.00 0.00 0.00 0.00 0.00 0.00 0.00 0.00
0.00 0.00 0.00 0.00 0.00 0.00 0.00 0.00 0.00 0.00 0.00 0.00 0.00 0.00 0.00 0.00 0.00 0.00 0.00 0.00 0.00 0.00 0.00 0.00 0.00 0.00 0.00 0.00 0.00 0.00 0.00 0.00 0.00 0.00 0.00 0.00 0.00 0.00 0.00 0.00 0.00 0.00 0.00 0.00 0.00 0.00 0.00
0.00 0.00 0.00 0.00 0.00 0.00 0.00 0.00 0.00 0.00 0.00 0.00 0.00 0.00 0.00 0.00 0.00 0.00 0.00 0.00 0.00 0.00 0.00 0.00 0.00 0.00 0.00 0.00 0.00 0.00 0.00 0.00 0.00 0.00 0.00 0.00 0.00 0.00 0.00 0.00 0.00 0.00 0.00 0.00 0.00 0.00 0.00
0.00 0.00 0.00 0.00 0.00 0.00 0.00 0.00 0.00 0.00 0.00 0.00 0.00 0.00 0.00 0.00 0.00 0.00 0.00 0.00 0.00 0.00 0.00 0.00 0.00 0.00 0.00 0.00 0.00 0.00 0.00 0.00 0.00 0.00 0.00 0.00 0.00 0.00 0.00 0.00 0.00 0.00 0.00 0.00 0.00 0.00 0.00
0.01 0.00 0.00 0.00 0.00 0.00 0.00 0.00 0.00 0.00 0.00 0.00 0.00 0.00 0.00 0.00 0.00 0.00 0.00 0.00 0.00 0.00 0.00 0.00 0.00 0.00 0.00 0.00 0.00 0.00 0.00 0.00 0.00 0.00 0.00 0.00 0.00 0.00 0.00 0.00 0.00 0.00 0.00 0.00 0.00 0.00 0.00
0.12 0.07 0.04 0.03 0.02 0.01 0.00 0.00 0.00 0.00 0.00 0.00 0.00 0.00 0.00 0.00 0.00 0.00 0.00 0.00 0.00 0.00 0.00 0.00 0.00 0.00 0.00 0.00 0.00 0.00 0.00 0.00 0.00 0.00 0.00 0.00 0.00 0.00 0.00 0.00 0.00 0.00 0.00 0.00 0.00 0.00 0.00
0.15 0.12 0.12 0.12 0.09 0.06 0.04 0.02 0.01 0.00 0.00 0.00 0.00 0.00 0.00 0.00 0.00 0.00 0.00 0.00 0.00 0.00 0.00 0.00 0.00 0.00 0.00 0.00 0.00 0.00 0.00 0.00 0.00 0.00 0.00 0.00 0.00 0.00 0.00 0.00 0.00 0.00 0.00 0.00 0.00 0.00 0.00
0.14 0.16 0.15 0.11 0.08 0.06 0.06 0.06 0.05 0.03 0.03 0.05 0.13 0.20 0.06 0.00 0.00 0.00 0.00 0.00 0.03 0.02 0.00 0.00 0.00 0.00 0.00 0.00 0.00 0.00 0.00 0.00 0.00 0.00 0.00 0.00 0.00 0.00 0.00 0.00 0.00 0.00 0.00 0.00 0.00 0.00 0.00
0.14 0.11 0.09 0.10 0.10 0.09 0.08 0.09 0.10 0.13 0.19 0.26 0.45 0.31 0.05 0.01 0.00 0.00 0.01 0.06 0.13 0.02 0.00 0.00 0.00 0.00 0.00 0.00 0.00 0.00 0.00 0.00 0.00 0.00 0.00 0.00 0.00 0.00 0.00 0.00 0.00 0.00 0.00 0.00 0.00 0.00 0.00
0.13 0.13 0.12 0.11 0.12 0.16 0.20 0.20 0.20 0.26 0.43 0.79 0.71 0.37 0.16 0.05 0.06 0.06 0.15 0.25 0.07 0.00 0.00 0.00 0.00 0.00 0.00 0.00 0.00 0.00 0.00 0.00 0.00 0.00 0.00 0.00 0.00 0.00 0.00 0.00 0.00 0.00 0.00 0.00 0.00 0.00 0.00
0.09 0.12 0.16 0.19 0.22 0.28 0.30 0.31 0.35 0.50 0.91 0.95 0.57 0.58 0.29 0.12 0.21 0.29 0.41 0.30 0.01 0.00 0.00 0.02 0.03 0.00 0.00 0.00 0.00 0.00 0.00 0.00 0.00 0.00 0.00 0.00 0.00 0.00 0.00 0.00 0.00 0.00 0.00 0.00 0.00 0.00 0.00
0.13 0.13 0.17 0.23 0.28 0.33 0.36 0.38 0.45 0.61 0.92 0.65 0.66 0.88 0.48 0.15 0.25 0.43 0.35 0.08 0.00 0.00 0.00 0.02 0.01 0.00 0.00 0.00 0.00 0.00 0.00 0.00 0.00 0.00 0.00 0.00 0.00 0.00 0.00 0.00 0.00 0.00 0.00 0.00 0.00 0.00 0.00
0.11 0.14 0.20 0.26 0.27 0.30 0.33 0.37 0.48 0.67 0.76 0.68 0.80 0.94 0.66 0.27 0.31 0.38 0.14 0.01 0.00 0.00 0.00 0.00 0.01 0.01 0.01 0.01 0.02 0.00 0.00 0.00 0.00 0.00 0.00 0.00 0.00 0.00 0.00 0.00 0.00 0.00 0.00 0.00 0.00 0.00 0.00
0.17 0.28 0.40 0.47 0.46 0.41 0.39 0.40 0.55 0.67 0.61 0.65 1.11 0.93 0.99 0.63 0.40 0.16 0.03 0.01 0.00 0.01 0.01 0.02 0.03 0.01 0.00 0.01 0.04 0.00 0.00 0.00 0.00 0.00 0.00 0.00 0.00 0.00 0.00 0.00 0.00 0.00 0.00 0.00 0.00 0.00 0.00
0.07 0.12 0.19 0.24 0.22 0.20 0.23 0.32 0.51 0.59 0.61 0.62 0.89 0.81 0.91 0.75 0.18 0.04 0.04 0.09 0.03 0.01 0.02 0.03 0.04 0.03 0.03 0.03 0.01 0.02 0.00 0.00 0.00 0.00 0.00 0.00 0.00 0.00 0.00 0.00 0.00 0.00 0.00 0.00 0.00 0.00 0.00
0.06 0.08 0.13 0.14 0.13 0.14 0.19 0.29 0.40 0.49 0.56 0.56 0.53 0.40 0.25 0.36 0.16 0.04 0.09 0.16 0.06 0.03 0.02 0.01 0.05 0.02 0.02 0.11 0.06 0.03 0.00 0.00 0.00 0.00 0.00 0.01 0.03 0.00 0.00 0.00 0.00 0.00 0.00 0.00 0.00 0.00 0.00
0.08 0.13 0.16 0.17 0.17 0.19 0.23 0.26 0.29 0.37 0.50 0.44 0.28 0.13 0.10 0.11 0.06 0.13 0.25 0.15 0.02 0.03 0.05 0.03 0.01 0.00 0.02 0.06 0.02 0.02 0.02 0.03 0.03 0.02 0.02 0.04 0.11 0.03 0.03 0.00 0.01 0.01 0.00 0.00 0.00 0.00 0.00
0.12 0.14 0.16 0.18 0.19 0.21 0.22 0.23 0.27 0.37 0.37 0.33 0.25 0.14 0.11 0.22 0.13 0.16 0.14 0.04 0.04 0.05 0.08 0.01 0.00 0.02 0.03 0.01 0.01 0.01 0.04 0.02 0.02 0.02 0.07 0.16 0.15 0.13 0.07 0.01 0.03 0.05 0.00 0.00 0.00 0.00 0.00
0.25 0.19 0.18 0.21 0.24 0.25 0.23 0.21 0.23 0.27 0.22 0.21 0.21 0.20 0.17 0.22 0.13 0.06 0.04 0.03 0.03 0.03 0.06 0.05 0.03 0.05 0.02 0.00 0.01 0.02 0.02 0.02 0.03 0.03 0.07 0.17 0.16 0.25 0.16 0.06 0.09 0.01 0.00 0.00 0.00 0.00 0.00
0.27 0.28 0.27 0.23 0.23 0.20 0.17 0.18 0.23 0.31 0.30 0.25 0.19 0.17 0.14 0.14 0.09 0.08 0.06 0.06 0.06 0.08 0.11 0.08 0.06 0.04 0.03 0.06 0.16 0.11 0.03 0.01 0.00 0.00 0.03 0.10 0.25 0.33 0.15 0.07 0.01 0.00 0.00 0.00 0.00 0.00 0.00
0.33 0.32 0.27 0.20 0.15 0.13 0.13 0.14 0.22 0.32 0.32 0.28 0.24 0.19 0.22 0.18 0.11 0.02 0.07 0.07 0.06 0.08 0.15 0.10 0.03 0.04 0.07 0.15 0.20 0.13 0.01 0.00 0.00 0.00 0.00 0.05 0.21 0.44 0.25 0.16 0.02 0.00 0.00 0.00 0.00 0.00 0.00
0.25 0.21 0.21 0.18 0.14 0.13 0.13 0.13 0.16 0.21 0.26 0.24 0.21 0.15 0.32 0.32 0.11 0.03 0.05 0.04 0.02 0.04 0.09 0.05 0.07 0.15 0.21 0.26 0.20 0.06 0.00 0.00 0.00 0.00 0.00 0.04 0.13 0.31 0.16 0.29 0.06 0.00 0.00 0.00 0.00 0.00 0.00
0.14 0.16 0.16 0.12 0.10 0.08 0.10 0.11 0.14 0.21 0.24 0.25 0.24 0.16 0.22 0.25 0.14 0.05 0.04 0.02 0.01 0.02 0.06 0.03 0.13 0.19 0.20 0.21 0.11 0.04 0.00 0.00 0.00 0.00 0.00 0.00 0.02 0.05 0.09 0.23 0.10 0.00 0.00 0.00 0.00 0.00 0.00
0.22 0.21 0.16 0.13 0.12 0.12 0.13 0.12 0.15 0.22 0.27 0.24 0.24 0.19 0.15 0.33 0.28 0.07 0.03 0.02 0.02 0.01 0.04 0.06 0.04 0.00 0.00 0.05 0.06 0.02 0.02 0.00 0.00 0.00 0.00 0.00 0.00 0.00 0.01 0.02 0.00 0.00 0.00 0.00 0.00 0.00 0.00